sim
Sign-in with your pilot id or email,
or register
Callsign
Passwort

Schedule Details

Flight Number: EWG4370
Departure: Salzburg Airport (LOWS) at 09:45
Arrival: Fuerteventura Airport (GCFV) at 14:35
Route: Eurowings Passenger Schedule. Enter filed route here before submitting Pirep.

Weather Information
Getting current METAR information for LOWS 231050Z VRB04KT 9999 FEW070 28/12 Q1023 NOSIG
Getting current METAR information for GCFV 231100Z 06015KT 9999 FEW020 24/19 Q1017

Schedule Frequency

Route Map